Theta_e
321 322 322 322 322 321 321 321 321 321 321 320 321 321 322 323 323 322 322 321 320 320 322 322 320 319 319 322 323 322 323 323 323 323 322 319 316 314 314 313 313 313 314 314 315 316 315 315 315 315 316 317 317 320 322 317 313 313 314 313 312 310 309 309 308 309 310 310 309 308 307 307 307 307 307 307 306 306 306 305 305 305 306 307 307
323 322 322 322 322 321 321 321 320 320 320 320 321 322 322 322 322 322 320 318 317 319 321 321 321 319 317 318 320 319 319 319 320 321 321 320 317 315 314 313 313 313 313 313 313 315 316 315 316 316 316 318 318 320 320 316 314 313 313 312 311 309 308 308 308 309 309 309 309 308 307 307 307 307 308 308 307 307 307 307 306 305 306 308 308
324 322 322 322 321 321 321 320 320 320 320 321 321 322 322 322 321 320 319 317 318 318 318 319 319 318 316 316 317 317 317 316 317 318 318 318 316 315 315 315 314 314 313 312 312 314 316 315 315 316 315 316 316 317 317 316 315 314 313 312 311 309 308 307 308 309 308 308 308 307 307 307 307 307 307 307 307 307 308 308 308 306 306 308 308
325 323 322 322 321 321 321 320 320 320 320 321 322 322 321 321 320 319 317 317 316 315 314 315 316 315 314 315 315 315 316 315 315 315 315 315 314 315 316 316 315 315 314 313 313 314 315 315 315 315 315 315 315 315 315 315 315 315 314 313 312 310 308 308 308 309 308 308 307 307 307 307 307 307 307 307 307 307 307 308 308 307 306 308 308
324 323 322 321 320 321 321 320 321 321 321 321 321 320 320 320 319 318 316 315 313 313 312 312 313 313 313 314 314 313 313 314 314 314 314 313 312 314 316 316 315 315 314 315 315 315 315 315 315 315 314 314 314 314 315 315 315 315 314 313 312 310 309 308 309 310 309 309 308 308 307 307 307 307 307 307 306 306 307 308 308 307 307 308 308
324 323 322 322 321 321 321 321 321 321 320 320 320 320 319 318 318 317 315 313 313 313 313 312 311 312 313 313 313 312 311 312 312 313 313 313 312 313 315 316 315 314 315 316 316 315 315 315 315 314 314 314 314 314 314 314 315 315 314 313 311 310 310 310 310 311 311 310 309 307 307 308 308 308 308 308 307 306 308 309 308 308 308 308 308
324 324 323 323 323 322 321 320 321 321 320 319 319 319 319 317 316 316 314 313 314 314 312 312 312 312 313 312 312 312 311 312 312 312 312 313 312 314 315 316 316 315 315 316 315 315 315 315 314 314 314 314 314 314 314 314 314 315 315 314 313 313 313 312 312 312 312 311 309 308 308 308 308 308 309 310 308 306 308 309 309 309 308 308 308
324 324 323 322 323 321 320 321 320 319 318 318 318 318 318 316 315 314 314 314 315 314 313 313 312 311 312 312 312 312 312 312 312 311 312 313 313 314 315 316 316 316 315 315 315 315 315 315 314 314 314 314 314 314 314 314 314 315 315 314 314 314 314 314 313 313 312 311 310 309 308 308 308 309 309 310 309 307 308 309 309 309 308 308 307
323 323 322 320 320 320 319 320 318 316 316 317 317 316 316 316 315 314 314 313 314 315 316 315 313 312 312 312 312 313 313 313 313 312 313 314 314 314 315 315 315 316 315 314 315 315 315 314 314 313 313 313 313 314 314 313 314 314 314 314 314 314 314 314 313 313 312 312 310 310 309 309 309 309 309 310 310 309 308 309 309 309 308 307 307
321 321 321 320 320 320 320 319 317 316 317 317 317 316 314 313 314 314 314 314 316 318 318 316 314 314 313 312 312 313 314 314 313 312 312 313 314 313 314 315 315 315 315 314 314 314 313 313 312 312 312 312 312 312 313 314 314 314 314 314 314 314 314 314 314 313 313 313 312 311 311 310 310 310 310 311 312 310 309 309 310 308 307 307 307
322 321 321 321 320 320 320 320 319 319 319 318 319 318 316 315 316 317 317 318 319 320 320 317 315 314 314 313 313 313 314 314 314 313 312 313 313 314 314 314 314 314 314 314 313 313 313 312 312 313 313 313 314 313 314 314 315 315 315 314 314 314 314 314 314 314 314 314 313 313 312 311 311 312 312 312 312 310 309 310 310 308 307 307 306
316 316 316 318 320 320 321 321 321 320 320 320 320 320 320 320 321 321 322 322 321 321 320 318 316 315 314 314 313 313 314 314 315 315 314 313 313 313 313 313 313 313 313 313 313 314 313 313 313 314 314 315 316 316 316 316 316 316 316 316 315 314 314 314 314 314 314 314 314 313 313 312 313 313 313 313 312 311 310 310 309 308 307 306 305
306 306 308 310 312 314 316 317 317 318 318 319 319 320 320 321 322 322 322 323 323 322 322 321 320 319 318 317 316 315 314 314 315 315 315 315 314 314 314 314 314 314 313 313 314 315 314 313 313 314 315 315 316 316 316 317 317 317 317 317 316 316 315 315 315 315 314 314 314 314 314 313 313 313 313 313 312 311 309 308 308 307 306 304 303
302 302 302 303 304 305 307 308 308 309 310 312 313 314 314 315 316 317 318 319 321 321 321 321 321 321 321 321 320 319 318 317 316 316 315 315 315 315 315 315 315 315 315 314 314 315 315 315 314 315 316 316 316 316 317 317 317 317 317 317 316 316 316 316 316 316 315 315 314 314 314 314 314 313 313 312 312 311 310 308 307 305 304 302 301
300 301 301 301 301 301 302 302 302 303 303 304 306 306 307 308 309 309 310 312 313 314 315 316 316 318 319 320 321 321 321 320 320 319 318 318 317 316 316 316 316 316 316 316 315 315 315 315 315 316 316 317 317 317 317 317 317 317 317 317 316 316 316 316 316 315 315 314 315 314 314 314 314 313 312 311 310 309 308 307 305 304 303 301 299
300 300 300 300 300 300 300 301 301 301 301 301 302 302 303 304 304 304 305 306 307 308 309 310 311 312 313 315 317 319 320 320 320 321 321 321 320 320 318 317 316 316 316 316 316 316 316 316 317 316 317 318 318 318 318 318 317 317 316 316 316 316 316 316 315 315 315 314 313 313 313 314 313 313 311 309 307 307 306 304 303 302 301 300 299
300 299 299 299 299 299 299 299 300 300 300 300 300 300 301 301 302 302 303 304 304 304 305 304 305 306 307 309 311 314 316 317 317 319 320 320 320 321 320 320 320 318 317 316 315 315 316 317 318 318 318 319 319 319 319 318 317 316 315 316 316 316 315 315 315 315 314 313 311 310 311 312 312 310 309 307 305 305 304 303 302 301 300 299 298
299 299 299 299 299 299 299 299 299 299 299 299 299 299 299 300 300 300 300 301 301 301 302 302 302 303 304 305 306 308 310 311 312 313 316 317 318 319 320 320 320 320 320 319 318 317 316 317 318 319 319 319 319 319 319 318 318 317 316 316 315 315 315 315 315 314 313 312 310 309 309 310 309 307 305 304 303 303 303 302 301 300 299 299 299
299 299 299 299 299 299 299 299 299 299 299 299 299 299 299 299 299 299 299 299 300 300 300 300 301 301 302 302 302 303 305 306 306 308 309 311 314 316 318 318 319 320 320 320 320 319 318 318 319 320 320 319 318 318 318 318 318 317 316 316 315 315 316 315 313 313 312 311 310 308 308 307 306 304 303 302 301 301 301 301 300 300 299 299 299
299 299 299 299 299 299 299 299 299 299 299 299 299 299 299 299 299 299 299 299 299 299 299 299 300 300 300 301 301 301 302 303 303 304 305 306 307 309 312 314 315 317 318 319 319 319 319 319 319 319 320 319 319 319 318 318 317 315 315 315 315 316 315 313 311 311 311 310 308 306 305 304 303 302 301 301 301 301 301 300 300 299 299 299 298
299 298 298 298 298 298 298 298 298 298 298 298 298 299 299 299 299 298 299 299 299 299 299 299 299 299 299 299 300 300 300 300 301 302 302 303 303 304 306 308 310 313 315 316 317 318 318 319 318 318 319 319 319 319 318 318 318 315 313 314 314 314 314 312 311 311 310 308 306 304 303 302 302 301 301 301 301 301 301 300 299 298 298 298 297
298 298 298 297 297 297 297 298 298 298 298 298 298 298 298 298 298 298 298 298 298 298 298 298 298 298 298 298 299 299 299 299 300 300 301 301 301 302 302 304 306 309 311 313 315 317 318 318 317 316 317 318 318 318 318 318 318 315 312 312 313 313 313 312 311 310 308 305 304 303 302 302 302 302 302 301 301 301 300 299 298 297 297 297 296
297 298 297 297 297 297 297 297 297 297 297 297 297 297 297 297 298 297 298 298 297 298 298 298 297 298 298 298 298 298 298 298 298 299 299 300 300 301 301 302 303 306 308 310 312 314 316 317 317 316 316 317 317 317 317 317 317 315 313 312 313 313 312 311 310 309 305 303 303 303 303 303 302 302 301 300 299 299 298 297 297 297 296 296 295
297 297 297 297 296 297 296 297 297 297 297 297 297 297 297 296 296 296 296 296 296 296 296 296 296 297 297 297 297 297 297 298 298 298 298 298 299 300 300 301 302 304 306 307 308 310 312 313 315 316 316 316 316 316 316 315 316 316 314 313 313 313 311 311 310 306 303 302 303 303 303 302 301 300 300 299 298 297 297 296 296 295 295 295 294
297 296 296 296 296 296 296 296 296 296 296 296 296 296 296 295 295 295 295 296 296 296 296 296 295 296 295 295 296 296 296 297 297 297 297 297 298 298 299 300 301 303 304 305 306 307 309 311 313 314 314 314 315 315 315 314 314 314 314 313 312 312 311 310 307 303 302 303 303 302 301 300 300 299 298 297 297 296 296 295 295 294 294 293 293
296 296 296 296 296 296 295 295 295 295 295 295 295 295 295 295 295 296 295 296 296 296 296 296 295 295 295 295 295 295 295 295 296 296 297 297 297 297 298 299 300 302 303 304 304 305 307 310 312 313 313 313 314 315 314 314 314 313 312 311 310 310 311 309 304 302 302 303 301 300 300 299 298 298 297 296 295 295 295 294 294 293 293 293 292
297 297 297 297 296 296 295 295 295 295 295 296 295 296 296 295 296 296 296 296 296 295 295 295 295 295 295 295 295 295 294 294 295 295 296 296 296 296 297 298 300 301 302 303 303 304 305 308 311 312 311 311 311 313 313 313 313 312 311 309 309 310 310 307 303 302 302 301 300 299 298 297 297 296 295 295 295 294 294 294 293 293 292 292 291
297 297 297 297 297 296 295 295 295 296 296 296 296 296 295 295 295 295 295 295 295 295 295 295 295 295 295 295 295 294 294 294 294 295 295 296 296 296 297 297 299 301 302 302 303 303 304 305 308 309 310 309 309 310 310 310 310 310 309 308 309 309 307 304 303 302 301 300 299 298 297 296 296 295 294 294 294 293 293 293 292 292 291 291 291
297 297 297 297 296 295 295 295 296 296 296 296 295 295 294 294 294 294 294 294 294 295 295 295 295 295 295 294 294 294 293 293 294 294 295 295 296 297 297 297 298 300 302 302 302 302 302 303 304 305 306 307 307 308 308 308 307 307 307 307 308 306 303 302 302 301 299 299 298 297 296 295 295 294 294 294 293 293 292 292 292 291 291 291 290
297 297 297 296 295 295 295 296 296 297 296 295 294 293 293 292 292 293 293 293 293 294 294 294 294 294 294 294 294 294 293 293 293 294 295 295 296 297 297 298 299 300 301 302 302 301 301 302 302 302 302 302 301 301 303 304 304 304 304 304 304 303 302 302 301 300 299 298 297 296 295 295 294 294 293 293 292 292 292 291 291 291 291 290 290
297 297 297 296 296 296 296 296 296 296 295 294 293 293 292 292 292 292 293 293 293 293 293 293 294 294 294 294 293 293 293 293 294 294 294 295 296 297 298 299 300 301 301 301 301 301 301 301 301 301 300 298 297 296 297 298 299 300 301 301 301 302 302 301 300 299 298 297 296 295 295 294 294 293 293 293 292 292 292 291 291 291 291 290 290
297 296 296 297 296 296 296 296 296 295 294 294 293 293 292 292 292 292 292 292 292 293 293 293 293 293 293 293 293 293 294 294 294 294 295 295 296 298 298 299 300 301 301 301 300 300 301 300 300 299 298 297 296 295 295 295 295 296 297 299 300 301 301 300 298 298 297 296 295 295 294 294 293 293 293 292 292 292 291 291 291 291 290 290 289
297 296 296 296 296 296 296 296 295 294 294 294 293 293 293 293 292 292 292 292 292 293 293 293 293 293 293 294 294 294 295 295 295 295 295 296 297 298 298 299 300 301 301 301 300 300 300 299 298 298 297 296 295 295 294 295 294 293 294 295 296 297 298 298 297 296 296 295 294 294 294 293 293 293 292 292 292 292 291 291 291 290 290 289 289
297 296 297 296 296 296 296 295 295 294 294 293 293 293 293 293 292 292 292 292 292 293 294 294 294 294 294 294 295 295 295 296 296 296 296 297 297 297 298 299 300 301 300 300 300 300 300 299 297 296 296 296 296 295 295 295 295 294 295 295 295 296 296 296 295 295 294 294 294 294 293 293 293 292 292 292 292 291 291 291 290 290 289 289 289
297 297 297 296 296 296 296 295 294 294 293 293 293 293 293 293 293 293 292 292 293 293 294 294 294 294 294 294 295 295 296 296 297 297 297 297 297 297 297 297 298 299 299 299 299 300 300 299 298 296 296 296 296 296 296 296 295 296 296 296 295 295 295 294 294 294 294 293 293 293 293 293 292 292 292 292 291 291 291 290 290 289 289 289 289
297 297 297 296 296 296 295 294 294 294 294 294 294 294 294 293 293 293 293 293 293 293 294 294 295 294 295 295 295 295 295 296 296 297 297 297 297 298 297 297 297 298 299 299 299 299 299 299 298 296 296 295 295 295 296 296 296 296 296 296 295 294 294 294 294 294 294 293 293 293 293 293 292 292 292 292 291 291 290 290 289 289 289 289 289
297 297 297 296 295 295 294 294 294 294 295 294 294 295 295 294 294 294 294 294 293 294 294 295 294 294 295 295 295 295 295 295 295 296 297 297 298 298 297 296 296 297 298 298 298 299 299 299 298 297 296 295 295 295 296 296 297 297 296 296 295 295 294 294 295 294 293 293 293 293 293 292 292 292 292 291 291 290 290 289 289 289 289 289 289
297 297 296 296 295 294 294 294 295 295 295 295 295 295 295 295 294 294 294 293 293 293 294 294 294 294 295 295 295 295 295 295 295 296 297 297 297 297 297 295 296 297 298 298 298 298 298 297 297 297 296 295 294 295 296 296 296 296 296 295 295 295 294 294 294 293 293 293 293 293 292 292 292 292 291 291 290 289 289 289 289 289 289 289 289
296 296 296 295 295 294 294 294 295 295 295 295 295 295 295 295 295 294 293 293 293 293 293 294 294 295 295 295 295 295 295 295 295 295 296 296 296 297 297 296 296 297 298 298 298 297 297 297 297 296 296 295 295 295 296 296 295 295 295 295 294 294 294 293 293 293 293 292 292 292 292 292 292 291 290 290 289 289 289 289 289 289 289 289 289
296 296 296 295 294 294 294 295 295 295 295 295 295 295 295 295 294 294 293 293 293 294 294 294 294 295 295 295 295 295 294 294 295 296 295 295 295 296 296 296 296 297 297 297 297 297 296 296 296 296 295 295 295 296 296 296 296 295 294 294 294 294 293 293 293 293 292 292 292 292 292 292 291 290 290 289 289 289 289 289 289 289 289 289 289
296 296 295 295 294 294 294 295 295 295 294 294 295 295 295 295 294 293 293 293 294 294 294 293 293 294 294 294 295 295 295 295 295 295 295 294 294 295 295 296 296 296 296 296 296 296 296 296 296 295 295 295 296 296 296 296 295 294 293 293 293 293 293 293 293 292 292 292 292 292 291 291 290 290 289 289 289 289 289 289 289 289 289 289 289
296 296 295 294 294 294 294 294 294 294 294 294 295 295 295 294 294 293 294 294 294 294 294 294 294 294 294 294 295 295 295 295 295 295 294 294 294 295 295 295 296 296 296 295 295 295 295 296 295 295 295 295 295 295 295 295 294 294 293 293 293 293 293 293 292 292 292 292 292 291 291 290 290 290 289 289 289 289 289 289 289 289 289 289 290
296 295 294 294 294 294 294 294 294 293 293 294 295 295 295 294 294 294 294 293 293 294 294 294 294 294 294 294 294 294 294 294 295 294 294 294 295 295 296 296 296 296 295 295 295 294 295 295 295 295 295 295 294 294 294 294 293 293 293 293 293 294 293 292 292 292 292 292 291 290 290 290 290 290 289 289 289 289 289 289 289 289 289 290 290
296 295 294 294 294 293 293 293 293 293 293 293 294 295 294 294 293 293 293 293 293 293 293 293 293 293 293 293 294 294 294 294 294 294 294 294 295 295 296 296 296 296 295 295 295 295 295 294 294 294 293 293 293 293 293 293 293 293 293 293 293 293 292 292 292 292 292 292 291 290 289 289 290 289 289 289 289 289 289 289 289 289 290 290 290
296 295 294 293 293 293 293 293 292 292 292 293 294 294 294 293 293 292 292 293 293 293 293 293 292 292 292 293 293 293 293 292 292 293 293 293 294 294 295 295 296 296 295 295 295 295 295 294 294 293 293 293 292 293 293 293 293 293 293 293 292 292 292 292 292 292 291 291 290 289 289 289 289 289 289 289 289 289 289 289 289 290 290 289 289
295 294 294 293 293 293 293 292 292 292 292 293 293 294 293 293 293 292 292 293 293 292 292 292 292 292 292 292 292 292 292 292 291 291 292 292 292 292 293 294 294 294 294 294 294 295 295 295 294 294 293 293 293 293 293 293 293 292 292 292 292 291 291 291 291 291 291 290 289 289 289 289 289 289 289 289 289 289 289 289 289 289 289 289 289
295 294 294 293 292 292 292 292 292 292 293 293 293 293 293 293 293 292 292 292 292 291 291 291 292 291 291 291 292 292 292 291 290 290 290 290 290 290 291 291 292 292 292 293 293 293 294 294 293 293 293 292 292 292 292 292 291 291 291 291 291 291 291 291 290 290 289 289 289 289 289 289 289 289 289 289 289 289 289 289 289 289 289 289 289
295 295 294 293 292 292 292 292 292 292 293 293 293 293 293 293 293 292 292 292 292 291 291 291 291 291 291 291 291 291 291 290 290 290 290 289 289 289 290 290 290 290 291 291 291 292 292 292 292 292 292 291 291 291 291 291 291 290 290 290 290 290 290 289 289 288 288 288 288 289 289 289 289 289 289 289 289 290 289 289 289 289 288 289 290
295 294 293 292 292 292 292 291 292 293 293 293 293 293 293 293 292 292 292 292 292 292 291 291 291 291 291 291 291 291 291 290 290 290 290 289 289 290 290 290 290 291 291 291 291 291 291 291 291 291 291 291 291 291 291 290 290 290 289 288 288 288 288 288 288 288 287 287 288 288 289 289 289 289 289 289 289 290 289 289 289 289 289 289 290
295 294 293 292 292 292 291 291 291 293 293 293 293 293 293 292 292 292 292 292 292 292 292 292 292 292 292 291 291 291 291 291 291 290 290 290 290 291 291 291 291 291 291 291 291 291 290 290 290 290 290 289 289 289 289 288 288 287 287 287 287 288 288 288 288 288 288 288 288 288 289 289 289 289 289 289 289 290 289 289 289 289 289 289 289
295 294 293 292 292 291 291 291 291 292 293 293 293 293 292 292 292 292 292 292 292 292 292 292 292 292 291 291 291 291 291 291 291 291 291 291 291 291 292 292 291 291 291 291 290 290 290 290 290 289 288 288 287 287 287 287 286 286 286 287 288 288 288 288 288 288 289 289 289 289 289 289 289 289 289 289 289 290 290 290 290 290 289 289 289
Wind_Speed
29 29 28 26 23 21 18 16 15 14 14 12 11 10 11 12 11 10 9 8 8 8 9 9 8 8 9 10 11 11 10 10 10 10 11 11 10 10 10 12 13 14 15 14 14 14 15 14 11 10 12 16 21 24 24 23 23 24 22 22 23 19 17 16 11 10 14 15 13 12 12 12 10 10 10 10 9 8 7 6 5 5 4 3 4
24 25 26 24 22 20 18 17 15 14 13 12 11 11 11 12 11 8 7 7 7 7 8 8 8 7 8 10 10 10 9 9 10 10 10 10 10 10 10 11 13 13 13 12 12 14 16 16 15 14 13 15 18 19 21 21 21 23 24 24 25 21 18 16 12 12 14 16 15 15 15 14 12 11 10 9 8 8 7 6 7 6 6 5 5
21 23 22 22 21 20 18 17 15 14 13 12 11 12 12 11 10 7 6 7 7 7 6 7 7 7 8 9 9 9 8 8 9 10 11 10 11 11 11 12 13 12 11 11 12 13 15 17 18 17 16 16 16 16 16 16 16 19 23 26 27 24 20 17 13 13 16 17 17 17 17 16 14 12 11 10 9 7 6 6 7 7 8 8 7
16 21 20 16 16 18 18 17 16 14 13 13 13 12 12 11 9 7 7 7 7 6 5 6 7 7 8 9 9 8 8 8 9 11 11 10 10 12 12 12 12 11 10 11 13 14 15 16 16 16 16 16 16 15 14 13 13 14 17 22 25 25 22 19 15 14 17 18 18 18 17 15 14 13 13 13 12 10 9 8 7 9 10 10 8
12 15 16 14 11 13 15 16 16 15 14 14 12 12 12 11 10 9 9 9 8 7 5 5 7 8 8 8 8 7 8 8 10 11 11 10 11 12 12 12 11 11 11 11 12 13 14 14 14 14 14 14 14 14 13 12 11 11 13 16 20 22 21 19 16 16 17 19 19 18 17 16 15 14 14 15 14 13 11 9 8 11 12 11 8
18 15 15 14 10 10 12 13 15 16 15 13 11 12 12 11 10 10 11 11 9 8 7 6 6 8 9 8 8 8 8 8 9 10 10 10 11 12 13 12 12 12 12 11 11 12 12 13 13 12 12 12 12 12 12 12 11 11 12 13 16 19 19 18 17 16 16 18 19 19 19 18 16 14 13 14 15 14 12 10 9 12 13 11 9
23 20 20 18 15 15 16 15 14 14 13 11 11 12 12 11 11 12 13 12 10 10 10 9 8 8 8 9 9 9 8 8 8 9 9 9 10 13 14 14 12 12 13 12 11 11 11 12 12 11 11 11 12 12 12 12 13 13 13 14 15 17 17 17 18 17 16 16 18 19 19 19 17 14 11 11 13 14 13 13 13 13 13 11 9
23 22 21 19 17 17 17 15 13 11 10 10 11 11 11 12 12 12 13 12 10 9 9 10 10 9 8 9 10 10 8 8 8 8 8 9 11 13 14 14 14 13 14 14 13 13 13 13 12 12 12 11 11 12 12 12 13 15 16 15 15 16 17 18 19 18 17 17 19 19 18 18 17 15 12 10 13 15 16 16 15 15 13 11 10
20 17 16 16 15 15 15 13 11 10 12 12 11 10 10 11 11 11 12 12 10 8 8 10 12 12 11 11 12 11 9 9 9 10 10 10 12 14 15 14 15 15 15 15 15 15 15 15 14 14 14 14 13 13 13 12 13 15 17 17 17 17 18 19 21 20 18 18 19 19 17 17 17 16 15 13 14 15 17 16 15 16 15 12 12
15 14 16 16 14 13 12 11 10 10 11 11 10 9 9 9 10 10 10 10 9 7 7 10 11 11 12 13 14 13 12 10 10 11 12 12 12 14 16 16 16 16 17 16 16 17 16 16 16 15 15 15 16 16 15 14 14 14 16 17 18 19 20 20 21 20 19 19 20 19 18 18 18 17 17 16 15 15 17 17 16 16 15 12 11
16 17 18 17 14 13 12 10 9 8 8 9 10 9 7 6 6 7 7 8 7 6 7 10 12 12 12 14 15 15 14 13 12 12 13 14 14 14 16 17 18 18 18 18 18 19 19 18 17 16 16 15 15 16 16 16 15 14 14 15 17 18 20 21 21 20 19 19 19 19 19 20 19 17 16 16 16 16 17 18 18 17 15 12 9
22 22 21 20 17 15 13 11 11 10 10 10 10 8 7 7 7 6 5 3 2 2 2 6 9 10 12 14 16 17 17 16 15 14 14 15 16 17 18 19 20 20 20 20 20 20 21 22 20 18 18 17 17 17 17 17 17 16 15 15 16 17 18 19 20 20 20 19 19 19 20 20 19 18 17 16 17 17 16 16 17 16 14 11 8
30 29 27 26 24 21 18 16 14 13 13 12 11 10 9 9 9 7 6 5 4 3 2 1 2 4 6 9 12 15 18 19 19 19 18 17 18 19 20 21 21 22 23 23 22 22 22 23 23 22 21 20 20 20 20 20 20 19 18 18 18 18 19 19 19 19 19 19 19 20 21 20 19 19 18 17 17 18 18 17 16 14 11 8 7
33 32 31 30 29 28 25 23 22 20 18 16 15 14 12 11 11 9 7 6 5 4 4 3 1 0 2 3 5 8 10 14 16 18 20 21 21 22 23 23 23 24 25 26 26 26 25 26 26 26 25 24 24 24 24 25 24 23 22 22 21 21 20 20 20 20 20 20 20 21 21 20 19 18 17 17 17 18 19 18 15 12 9 6 5
34 32 31 31 30 29 27 26 25 23 21 19 18 17 16 15 14 12 9 8 7 6 5 5 4 3 2 3 5 5 6 7 10 12 15 17 19 22 24 26 27 27 27 28 29 29 29 29 29 29 28 27 27 27 27 28 27 26 24 23 22 21 21 22 22 21 20 20 21 22 22 21 20 18 17 17 17 16 16 15 12 9 8 7 5
33 32 31 30 28 27 26 25 24 23 23 22 21 20 17 16 14 12 10 9 8 6 6 5 5 4 4 4 5 5 5 5 8 9 11 13 14 17 19 22 25 28 30 31 31 31 32 32 32 31 31 30 29 29 29 29 27 25 23 23 23 23 23 24 22 19 19 20 20 20 19 19 19 17 16 17 16 14 13 11 9 8 8 8 7
31 31 30 29 27 25 23 23 23 22 21 22 24 23 20 17 15 13 11 10 9 8 7 7 7 7 6 6 6 6 6 6 7 9 10 12 14 15 16 18 20 23 26 29 30 32 32 32 32 32 31 31 31 30 31 29 27 24 24 25 27 28 27 26 23 21 21 19 16 14 13 13 14 15 16 15 13 12 10 10 10 9 9 9 7
29 29 28 27 26 25 22 21 21 21 20 21 22 21 20 19 17 15 13 12 12 11 10 9 9 9 8 8 8 8 8 8 8 9 10 11 12 14 16 18 19 21 22 24 25 28 30 30 30 31 32 31 30 30 30 30 29 28 27 26 28 29 28 25 22 21 20 17 14 13 12 12 14 15 15 13 10 9 7 8 10 11 10 9 7
23 23 23 22 22 22 22 20 20 20 19 18 18 18 18 18 17 15 14 13 12 12 11 11 10 10 10 9 10 10 11 10 10 11 11 12 13 13 14 17 19 21 22 23 23 25 27 28 29 30 31 30 28 29 30 32 32 31 29 28 28 28 27 24 21 18 16 15 16 16 16 16 16 15 13 11 9 8 6 6 8 10 9 8 7
19 19 18 18 18 18 18 18 17 17 16 15 15 14 15 15 15 14 13 12 11 10 11 11 11 11 11 11 11 11 12 12 12 12 12 12 13 14 15 16 18 21 23 25 25 25 26 28 29 30 31 30 29 29 31 32 33 31 29 29 29 29 26 23 19 16 14 15 17 19 19 17 15 13 12 11 10 9 8 7 7 7 7 6 6
20 19 19 19 18 17 16 16 15 14 13 12 12 11 12 12 12 12 12 11 10 10 10 11 11 11 12 12 12 12 13 13 14 14 14 14 14 15 17 17 17 20 23 26 28 28 28 28 29 29 31 32 32 32 31 32 33 31 29 30 31 29 23 20 20 18 15 16 20 20 18 16 14 12 12 11 11 10 9 8 8 7 6 5 5
19 19 19 19 18 17 16 15 13 12 12 11 10 10 10 10 10 11 11 10 10 10 11 11 12 12 12 13 13 13 14 15 15 15 15 16 16 16 18 19 18 19 22 25 28 30 31 31 30 30 30 32 32 33 32 31 31 31 29 28 28 26 21 20 21 19 17 20 22 21 19 17 15 14 13 12 12 11 10 8 7 6 5 4 3
18 18 18 18 17 16 15 14 12 12 12 11 11 11 10 10 10 10 11 11 11 11 12 13 14 15 15 15 15 15 16 16 17 17 17 17 17 17 18 19 18 18 20 23 27 29 31 32 33 32 33 32 31 31 32 31 30 29 27 25 25 24 22 22 22 21 21 24 24 22 20 18 17 16 16 15 14 12 10 9 7 6 4 3 2
18 18 17 16 16 15 14 13 12 11 12 12 12 12 12 12 12 12 12 13 13 14 14 15 16 17 18 19 19 19 19 19 19 19 19 19 19 19 19 19 19 19 20 21 24 26 29 31 32 33 35 34 30 29 30 31 30 29 28 26 25 25 24 23 23 25 27 27 25 22 21 19 19 18 17 16 15 13 11 10 8 6 4 3 2
18 18 18 17 16 14 13 12 12 11 12 12 12 12 13 13 13 13 13 14 14 15 15 16 17 18 19 21 23 23 23 23 22 21 21 21 21 21 20 20 19 19 20 21 21 22 24 27 29 31 33 32 29 27 28 29 30 30 29 28 27 27 26 24 26 30 30 28 25 23 22 20 19 19 17 16 15 14 12 11 8 5 4 2 2
19 18 18 17 16 16 15 14 13 13 12 12 12 13 13 14 14 14 15 16 16 17 16 17 18 19 21 23 24 26 26 26 26 25 24 24 24 23 22 21 20 20 21 22 21 21 21 22 24 27 30 30 28 28 28 28 28 29 28 27 27 28 27 27 32 33 30 27 26 24 23 22 20 19 19 18 16 13 11 9 7 6 3 2 2
18 18 18 16 15 16 17 17 15 14 14 14 14 14 15 15 16 16 17 18 19 19 18 18 19 20 22 24 25 26 26 26 26 25 24 24 25 25 25 24 23 22 23 23 24 24 22 20 21 23 26 27 27 28 28 27 27 27 26 24 26 29 30 32 35 33 29 27 27 25 24 23 22 21 20 18 15 12 8 6 5 4 3 2 3
17 18 17 15 15 16 17 17 16 16 16 16 16 16 17 17 17 17 17 17 19 19 19 19 19 20 22 23 24 25 25 24 24 23 21 22 24 26 27 27 26 26 25 25 26 26 24 21 20 21 23 23 23 24 26 26 26 26 25 25 27 29 31 33 33 31 29 29 28 26 26 24 23 21 18 15 12 10 7 5 4 5 4 4 5
17 16 15 15 15 15 16 16 16 17 18 18 17 17 17 18 18 18 17 16 16 17 18 19 19 20 20 21 22 24 25 25 23 21 19 20 22 23 26 28 28 27 25 25 25 24 22 20 19 18 18 19 21 23 25 25 24 23 24 27 29 31 33 35 33 30 30 29 28 28 26 24 22 19 16 13 11 10 7 5 5 5 5 5 7
17 16 15 15 15 15 15 16 16 17 17 17 18 19 19 18 17 17 17 16 14 14 16 17 18 19 20 21 21 22 24 25 23 21 21 21 21 22 24 27 27 25 24 23 22 20 18 17 16 15 15 17 19 21 23 24 25 26 27 29 32 34 35 34 32 31 30 29 28 27 26 24 22 18 14 13 12 10 8 6 5 5 5 6 6
18 17 16 16 16 16 16 17 17 18 17 17 19 21 22 22 20 17 16 15 14 13 14 16 16 17 18 20 21 22 23 23 22 21 22 22 21 22 25 26 24 22 22 21 18 16 16 15 15 15 15 16 16 16 17 17 20 26 30 32 33 35 35 33 32 31 30 28 27 26 24 22 19 16 13 12 12 10 7 5 4 4 5 5 6
16 16 15 16 17 17 17 17 17 17 16 16 18 20 21 23 23 21 18 17 16 15 15 15 17 17 18 20 23 24 25 23 22 21 21 20 21 23 24 24 22 20 19 16 14 15 16 15 15 16 15 16 15 14 14 13 13 19 26 32 34 35 35 34 32 31 29 27 26 24 22 19 17 15 13 11 10 9 7 5 5 4 4 5 6
13 13 13 14 15 15 16 16 15 15 15 16 18 19 19 20 22 24 24 23 21 19 18 19 20 22 22 22 23 24 24 22 21 20 19 19 20 22 22 19 17 15 13 11 12 15 16 15 16 16 17 17 15 12 10 8 8 10 16 23 28 32 33 33 31 29 27 25 23 21 20 18 16 14 12 10 8 7 6 5 4 3 4 5 5
10 11 12 13 14 14 15 15 14 14 15 17 18 18 19 19 20 22 25 27 27 27 26 25 25 25 24 23 22 21 21 21 20 19 19 19 19 20 20 17 14 12 10 8 11 14 16 17 17 16 16 18 17 14 11 9 9 12 15 18 23 28 30 30 28 27 25 22 21 20 19 16 13 12 10 8 6 5 4 4 3 3 4 4 4
9 10 11 11 12 13 13 13 12 13 15 17 17 17 18 18 19 20 22 24 26 29 30 30 27 25 23 22 21 20 20 19 18 17 17 17 18 19 18 16 14 12 10 9 11 13 15 17 18 17 16 17 17 17 18 19 21 22 23 24 25 27 27 27 26 23 21 19 18 18 16 13 11 9 8 6 5 5 5 4 3 3 3 2 3
10 10 10 10 10 11 11 10 10 11 14 15 16 17 17 18 19 20 20 20 22 24 27 28 27 25 23 21 21 21 20 19 17 16 15 15 16 16 15 14 14 14 13 12 12 13 15 17 18 17 16 17 18 19 23 27 28 27 27 27 28 27 26 25 22 18 17 17 17 15 13 11 10 8 7 7 6 5 4 4 4 3 3 2 3
10 9 9 10 10 10 10 10 11 11 12 14 15 17 17 18 18 19 19 20 20 21 22 24 25 26 25 23 22 21 21 19 16 15 14 13 13 12 11 11 12 14 15 14 14 14 15 17 18 17 17 17 20 24 28 30 30 29 28 29 28 27 24 21 18 16 17 18 16 13 11 11 10 9 8 7 7 5 4 5 5 4 2 1 2
10 9 9 10 9 9 9 11 12 12 12 13 14 15 16 17 18 18 18 17 17 17 18 20 21 22 22 21 21 22 21 18 15 14 13 13 12 10 7 8 10 13 14 14 14 15 16 17 17 17 18 19 22 26 29 30 30 31 31 29 27 25 22 19 18 18 18 17 15 13 13 12 11 9 7 7 7 6 7 7 6 4 2 0 2
9 8 9 9 8 8 9 10 10 11 13 14 14 15 15 15 15 15 14 13 13 14 15 16 16 16 17 19 20 21 20 18 17 17 16 15 13 11 8 9 11 13 14 14 13 13 15 16 17 18 18 19 22 25 27 28 29 29 28 28 26 23 21 20 20 19 17 15 15 15 14 12 10 8 7 7 8 8 9 8 5 2 1 1 2
8 8 10 9 7 7 9 9 9 11 14 15 14 14 13 12 11 11 11 11 12 13 13 13 13 14 15 17 18 18 17 16 16 16 16 15 13 11 10 10 11 13 14 13 11 10 12 13 14 16 18 20 22 24 25 25 25 25 24 24 23 21 20 19 18 16 15 16 16 15 13 11 10 10 9 9 8 9 8 6 3 1 1 1 2
8 8 10 8 5 6 8 8 8 11 13 14 13 11 10 9 8 8 9 10 12 13 13 11 11 13 15 16 16 15 13 13 14 14 13 13 12 11 9 8 9 9 10 9 7 8 11 12 13 16 19 21 22 22 22 21 22 23 23 21 21 20 18 15 14 14 16 17 16 13 11 10 10 11 10 9 9 8 6 4 3 3 3 1 3
7 9 9 7 5 6 6 6 8 10 12 13 12 8 6 6 7 7 8 10 11 13 12 11 11 12 13 13 13 12 11 11 11 10 10 9 9 8 7 6 6 6 4 4 4 5 9 11 13 16 19 21 21 20 19 18 19 22 22 21 20 17 14 12 14 16 18 17 14 12 11 11 11 10 10 9 8 6 4 4 5 4 2 2 4
6 8 9 7 7 7 6 6 7 9 11 13 11 6 4 5 7 8 9 9 10 11 10 10 10 11 10 10 11 11 10 10 10 8 7 6 6 6 6 6 6 4 2 2 3 5 8 10 11 13 16 18 17 17 17 18 19 22 23 21 17 15 14 15 18 19 17 14 12 10 10 11 11 11 10 9 7 5 4 5 5 3 1 3 5
6 8 9 8 8 7 6 6 7 9 10 11 8 3 3 5 7 8 9 10 10 9 8 8 9 10 10 10 10 10 10 11 10 8 7 6 6 7 7 8 8 9 10 10 9 8 9 10 11 12 14 15 16 17 18 19 19 20 20 17 15 16 18 20 19 17 14 12 10 10 11 12 12 12 10 8 7 5 5 3 1 1 2 4 5
6 8 9 9 9 8 7 7 8 9 9 7 3 1 3 5 7 8 10 11 10 8 7 7 8 9 9 9 9 9 10 11 10 9 8 7 7 7 7 8 9 11 13 14 14 14 14 15 16 16 16 17 18 19 19 18 17 15 14 14 15 18 19 18 16 13 11 9 9 10 12 13 13 12 10 9 7 6 4 1 2 3 4 5 5
5 8 9 9 8 8 7 7 9 9 7 3 1 3 4 4 6 8 9 9 8 6 5 6 8 8 9 9 8 9 10 11 11 10 9 8 8 8 8 8 9 10 12 12 13 13 13 13 14 16 16 16 16 16 16 14 13 13 12 13 16 17 16 14 12 10 8 7 8 11 14 14 13 12 10 9 7 5 3 2 1 3 4 4 5
5 7 9 9 8 7 7 7 8 8 4 1 2 3 3 3 6 7 8 7 6 5 6 7 8 8 9 9 9 9 10 11 11 12 11 11 10 10 10 10 11 12 13 14 14 14 14 15 15 16 16 15 15 14 14 13 12 13 13 14 14 13 12 11 10 8 7 7 8 11 14 14 13 12 10 9 7 4 3 3 3 4 5 5 6
6 7 8 8 7 6 6 6 6 5 2 0 1 2 2 3 5 6 6 5 5 5 6 7 8 9 9 10 9 10 11 12 13 14 14 13 13 13 14 15 16 18 19 19 19 20 20 19 19 18 18 17 17 16 16 15 14 12 11 10 9 8 8 8 8 7 8 8 9 11 13 14 13 12 10 8 6 4 4 4 3 5 6 7 8
7 6 7 6 5 5 5 4 4 3 2 0 1 2 2 3 4 5 5 4 4 3 5 7 8 9 10 10 10 10 11 13 15 16 16 17 18 18 19 20 21 21 21 21 21 20 21 20 19 18 17 16 15 14 13 12 11 10 8 8 8 9 9 8 8 8 8 9 11 12 13 13 13 11 9 7 5 4 5 4 2 4 6 6 7
8 6 6 5 4 4 4 4 2 1 1 1 1 2 1 2 3 3 3 3 2 2 5 7 8 8 9 10 10 11 11 13 14 15 16 16 17 17 18 18 18 18 18 18 17 17 17 16 16 15 14 13 12 12 11 10 10 9 9 10 11 11 10 9 9 9 10 11 12 13 13 12 11 9 7 6 5 4 4 3 1 2 5 5 6
9 6 5 4 3 3 3 2 2 2 2 2 2 2 1 2 3 2 1 2 2 4 6 7 7 8 9 9 9 10 11 11 11 12 12 12 12 12 13 13 13 14 14 14 13 13 13 12 12 12 12 12 12 12 11 10 10 9 10 11 11 11 11 10 10 11 11 12 12 12 10 8 7 7 6 6 4 3 2 1 0 1 3 3 5
Wind_Direction
169 167 165 164 163 164 167 170 172 174 178 182 182 179 178 182 183 182 182 184 186 183 178 174 172 164 161 167 170 169 170 169 168 169 166 166 166 163 161 160 156 151 149 143 139 144 145 138 137 150 167 182 187 185 188 194 195 198 204 206 204 202 195 182 165 165 188 200 200 188 184 185 181 179 178 180 187 192 191 194 193 183 174 170 170
161 159 159 161 162 165 168 172 174 175 178 181 179 175 176 180 184 189 190 188 185 181 180 181 184 182 171 169 173 175 179 182 182 183 180 177 178 177 174 171 166 161 159 156 149 145 143 140 135 134 144 161 173 181 188 193 198 204 206 207 207 207 202 193 176 166 184 200 203 198 195 197 196 193 191 190 195 205 210 213 215 209 201 197 189
155 155 157 161 164 167 170 174 177 179 179 177 175 173 176 181 186 194 191 183 183 185 191 192 194 196 185 178 180 182 184 186 187 190 187 184 183 180 179 178 173 170 171 171 167 158 149 144 142 144 146 149 157 167 179 187 196 206 209 209 211 210 207 205 198 185 187 195 201 202 201 204 206 205 207 207 206 215 229 232 232 224 211 203 195
151 153 149 143 148 157 164 170 176 179 175 172 172 174 177 181 186 190 188 184 185 186 190 193 193 194 187 180 182 187 192 194 193 193 190 189 188 182 178 179 179 181 181 175 173 171 163 155 152 155 158 158 160 166 172 178 185 196 203 208 212 211 206 206 211 204 195 193 198 201 204 209 213 213 219 223 220 223 236 240 232 220 208 201 198
148 144 136 122 117 136 151 161 167 171 169 167 171 176 178 182 186 188 185 180 180 178 175 183 190 194 194 188 187 194 201 203 202 199 197 198 198 189 183 183 187 189 185 177 173 174 174 170 167 169 173 171 169 172 178 180 183 189 194 200 206 206 203 205 211 210 203 199 199 201 206 213 218 220 225 231 229 224 229 234 223 206 197 194 197
163 160 158 154 145 148 160 166 163 163 165 165 173 179 180 185 190 190 186 184 188 192 188 187 189 195 201 204 203 207 208 206 207 206 204 206 204 196 192 191 192 192 188 183 180 180 181 182 181 183 191 192 187 186 189 191 193 193 191 191 195 199 202 207 210 211 210 208 204 202 207 214 219 222 226 233 231 222 214 210 200 191 190 194 201
164 170 176 176 176 182 186 181 168 162 164 168 177 182 184 189 194 193 191 194 203 206 204 205 203 202 208 211 209 210 211 211 211 209 206 207 203 197 198 199 198 198 198 196 196 194 194 196 197 198 203 207 206 201 199 200 201 202 200 197 197 200 206 211 211 212 216 214 209 207 209 214 217 220 225 228 224 219 211 199 187 184 189 196 197
166 173 176 173 174 183 185 182 178 171 167 173 180 183 187 191 194 196 199 204 211 214 217 219 215 212 214 210 204 206 214 219 218 215 213 213 207 203 204 207 208 209 207 208 210 211 211 212 215 218 220 222 221 217 213 206 204 207 208 209 209 208 209 212 212 214 218 217 215 213 212 214 216 220 224 217 211 213 213 205 193 186 186 186 180
162 163 156 151 156 168 174 181 184 171 167 175 178 179 186 192 196 200 204 209 214 226 239 235 225 221 218 211 205 206 216 225 226 227 228 225 218 214 213 215 216 216 215 217 220 221 222 225 228 232 234 235 235 234 230 223 217 214 213 214 216 215 214 214 214 215 217 217 216 216 216 217 218 219 219 218 219 218 213 207 198 188 185 183 181
136 124 117 127 144 158 168 178 179 173 180 186 177 170 177 191 202 208 210 212 219 239 250 238 229 224 217 214 214 214 218 225 228 230 232 231 228 223 222 221 220 221 224 228 231 231 233 237 239 240 239 239 239 239 238 236 234 230 226 223 219 217 215 214 215 216 217 217 216 214 215 219 220 221 223 228 232 225 212 206 198 187 184 185 186
114 104 105 118 132 139 142 147 143 147 165 171 166 166 170 176 192 205 211 217 234 256 254 237 233 228 218 216 218 219 223 227 230 232 232 232 231 228 226 226 225 227 231 235 240 242 242 242 243 243 241 240 241 241 240 241 240 238 237 232 225 220 217 216 216 216 216 218 218 215 216 220 221 221 225 228 227 222 213 207 200 189 185 187 193
99 94 96 105 112 116 121 126 120 116 120 126 135 142 140 138 146 156 162 167 199 265 247 230 231 231 226 224 224 224 228 231 234 236 236 235 234 233 232 233 234 235 238 240 243 246 246 245 243 243 244 244 244 243 242 242 243 242 241 239 234 230 227 225 224 223 223 223 220 218 220 222 221 219 220 221 218 214 208 203 199 193 191 195 200
84 81 82 87 91 93 99 105 106 103 105 109 116 122 123 128 130 122 111 106 102 90 87 132 203 224 230 232 231 231 232 235 237 240 242 242 240 239 239 241 242 242 243 244 245 245 244 243 243 244 244 244 244 245 244 243 242 240 241 242 240 238 236 236 236 237 238 235 230 229 229 227 227 225 223 220 214 205 198 195 194 193 196 201 201
74 72 71 72 76 79 82 84 84 85 90 97 103 105 104 106 108 102 94 94 96 92 82 74 76 358 262 257 256 250 244 244 244 246 248 249 246 244 244 244 245 246 247 248 248 248 246 244 244 245 245 244 243 243 244 243 241 240 240 239 239 239 238 238 240 243 245 246 246 247 246 244 243 239 229 222 217 211 201 194 192 193 193 194 194
65 65 64 63 64 67 68 68 67 66 67 75 83 87 86 86 87 85 83 82 80 79 73 62 54 34 343 302 284 280 276 269 264 260 259 259 256 254 251 249 248 248 249 250 251 252 252 251 250 250 249 247 246 244 243 242 241 240 238 237 239 242 243 243 244 244 247 251 252 253 255 254 251 245 231 219 214 211 203 195 193 194 187 181 180
61 60 58 56 56 57 57 57 56 52 49 49 53 58 61 64 65 63 65 68 67 67 63 46 32 23 8 341 306 289 283 287 287 283 279 276 272 268 264 260 257 254 252 251 252 252 252 253 253 252 251 250 247 245 244 242 240 238 237 240 245 249 252 253 252 254 261 261 255 256 259 254 247 236 221 208 201 198 195 187 185 189 180 168 166
61 60 57 54 52 49 48 48 48 45 41 36 35 37 38 40 40 36 35 35 33 31 29 20 9 360 351 343 324 300 289 296 300 295 293 291 288 285 280 274 269 265 261 259 257 256 255 254 255 254 252 250 248 245 243 242 242 240 240 243 246 250 253 253 252 256 264 261 253 253 252 238 223 210 201 199 200 202 200 188 182 185 180 170 173
62 61 58 55 53 50 46 44 43 42 38 31 26 24 24 25 25 22 18 16 11 7 2 358 355 349 342 338 328 309 296 299 300 295 294 297 295 292 290 284 277 273 272 269 266 264 262 260 259 258 254 251 249 248 247 246 246 245 245 244 243 245 245 243 241 242 245 246 245 242 228 208 197 194 193 194 199 204 208 198 190 186 181 180 184
62 60 57 53 51 48 45 42 41 41 38 32 24 18 15 15 14 12 11 9 5 359 350 344 345 344 341 338 331 318 305 300 301 298 296 299 299 295 293 290 282 276 276 274 271 269 266 264 262 261 259 254 249 249 251 252 249 247 245 242 239 239 238 238 237 230 227 235 238 226 210 199 193 191 190 187 183 185 188 192 191 187 183 185 186
62 60 55 50 46 41 39 38 38 39 39 36 30 23 16 12 8 7 8 8 4 359 350 344 339 337 337 336 333 329 319 308 304 303 303 307 309 306 301 298 291 284 281 278 276 272 269 267 264 263 263 261 255 251 250 252 252 247 240 237 237 237 238 236 231 225 227 230 219 204 195 190 184 179 176 169 166 169 173 178 184 188 191 191 189
59 55 51 48 45 41 38 37 36 38 39 37 34 30 24 19 12 9 8 6 4 1 355 348 339 333 331 330 328 329 326 318 311 308 308 310 315 316 314 311 305 295 287 282 280 277 275 274 272 269 268 265 263 260 256 256 257 250 240 238 240 239 238 232 224 226 229 216 199 190 186 179 170 165 163 162 168 175 180 183 186 189 194 190 188
52 47 43 42 41 39 38 37 37 37 35 33 32 31 28 21 13 10 7 3 1 359 353 349 342 333 329 327 324 323 322 319 315 311 309 310 312 315 317 317 313 302 290 283 279 278 278 279 279 279 276 272 267 265 261 260 258 251 242 240 238 236 234 230 225 221 212 197 189 184 180 174 168 166 167 171 176 179 181 184 184 184 183 177 181
50 47 44 40 36 33 30 29 31 30 28 27 27 26 22 15 7 4 0 357 356 353 349 346 342 335 330 326 323 321 319 317 316 312 310 309 309 310 313 315 314 308 297 286 279 275 275 277 278 279 280 277 272 267 263 259 256 252 245 237 233 233 234 231 223 210 195 189 187 183 179 177 173 171 174 176 176 175 176 175 172 171 169 162 153
47 46 44 41 37 34 29 24 23 21 17 16 14 13 11 6 1 359 357 355 354 351 349 347 342 339 335 329 326 323 321 318 317 315 313 310 307 306 307 309 311 310 304 297 290 282 275 273 274 276 279 278 273 268 262 256 254 253 247 240 237 238 236 227 213 200 189 185 184 180 177 178 177 174 174 174 170 167 165 161 158 156 149 133 106
41 40 38 37 35 32 27 23 20 15 11 9 8 8 6 2 1 1 359 358 356 352 350 347 343 340 337 333 329 327 324 322 320 318 317 313 309 306 306 307 309 308 304 303 305 300 287 276 273 274 275 276 274 269 261 255 253 252 251 248 242 237 231 216 201 192 186 182 180 176 172 174 177 174 171 167 163 161 158 151 144 137 125 108 84
35 33 31 31 31 29 25 21 17 14 12 11 11 10 6 2 359 357 355 353 351 347 344 341 339 336 334 333 331 328 327 325 322 322 322 319 313 310 306 304 305 308 308 309 313 312 301 286 276 274 275 274 272 267 261 257 255 252 251 247 237 228 221 206 192 187 183 180 178 174 171 172 171 167 165 162 158 156 153 147 139 129 117 94 78
30 27 25 24 24 22 20 17 15 13 11 8 4 0 358 354 351 348 347 345 342 339 336 333 332 331 330 329 328 327 326 326 324 324 324 322 319 316 312 307 304 306 310 313 315 315 310 296 281 275 273 272 268 262 257 254 253 251 247 238 227 221 213 200 190 185 182 179 177 172 168 166 163 161 161 159 153 147 143 141 137 128 115 85 75
25 22 21 20 18 14 11 9 6 3 360 356 354 353 352 349 345 341 338 335 331 330 328 325 324 325 324 324 324 323 322 323 324 323 322 321 321 319 315 311 306 305 308 312 313 313 311 302 286 275 271 267 261 254 250 249 249 246 237 225 216 210 200 190 185 184 181 177 172 166 162 161 161 161 160 155 145 135 126 117 116 119 109 75 65
18 18 19 18 15 10 6 2 356 352 350 349 350 350 347 345 341 333 328 325 322 320 319 317 318 320 319 319 319 317 315 318 320 317 312 312 314 313 310 307 304 301 303 307 308 307 306 300 287 275 267 258 247 240 238 237 236 231 220 208 202 196 188 182 180 179 176 173 167 163 160 160 160 160 156 146 132 122 116 111 111 112 93 62 58
10 13 14 12 9 2 356 353 350 348 348 347 348 347 343 343 341 334 330 327 321 315 312 311 312 313 311 311 312 312 313 317 317 311 304 304 306 304 300 299 298 296 298 301 301 298 296 291 281 267 251 238 229 224 223 221 214 206 198 194 190 185 180 178 177 174 172 169 165 162 160 159 158 156 149 137 127 122 122 120 111 99 76 60 54
5 8 7 2 358 352 348 346 345 346 347 348 349 346 342 341 342 340 338 335 328 319 313 310 311 311 310 311 315 317 317 318 315 308 300 299 301 299 295 294 293 292 295 298 293 285 282 277 268 257 240 225 218 212 210 211 203 191 183 180 178 177 175 174 174 171 167 163 161 161 161 159 154 149 142 133 130 130 132 127 110 92 73 53 34
2 3 1 356 351 347 344 342 341 343 345 347 346 343 340 339 338 336 337 337 334 330 328 326 326 326 324 322 322 321 319 317 313 306 299 296 297 296 296 297 295 292 296 296 282 272 271 264 254 245 230 217 213 208 203 205 205 192 178 171 170 172 172 170 168 165 161 158 158 158 157 152 146 141 136 132 132 136 136 126 108 91 61 34 30
359 358 355 352 347 342 340 337 336 341 344 342 339 337 335 335 333 331 332 336 338 340 341 341 340 337 334 331 327 323 320 315 309 303 298 294 293 293 296 299 296 292 295 291 272 266 263 253 244 237 225 215 210 204 197 199 203 190 171 160 158 160 161 159 158 157 155 153 153 150 147 146 143 139 134 131 129 127 124 118 106 75 41 34 42
351 351 348 344 340 337 336 334 335 342 344 340 337 335 333 333 332 331 333 336 338 339 341 342 342 340 337 336 334 331 325 318 310 304 298 294 293 294 298 300 296 289 288 281 269 265 260 249 239 233 225 216 209 202 198 195 183 166 155 148 145 146 148 149 149 149 148 147 146 144 144 145 141 134 130 127 120 115 120 122 100 62 52 48 37
339 341 338 336 334 332 332 332 338 345 344 341 338 335 332 331 330 330 331 331 331 332 334 335 338 339 339 340 340 337 332 327 321 313 304 299 297 298 298 294 287 283 281 273 265 264 261 253 244 236 226 217 210 202 193 185 176 166 158 154 148 145 144 144 142 141 140 140 141 141 141 140 136 130 126 124 127 139 146 139 109 84 75 49 9
327 327 329 330 330 329 331 332 337 339 337 333 330 327 327 328 329 329 329 327 327 328 328 330 333 337 340 344 343 337 333 331 327 321 314 310 307 304 296 284 278 280 280 274 267 263 259 254 248 240 228 215 207 197 183 176 173 169 162 157 154 151 149 146 141 138 136 138 140 142 144 144 143 137 131 132 141 151 150 135 119 109 92 45 6
323 321 323 327 329 332 334 332 331 331 327 324 323 324 326 329 330 329 329 328 328 328 328 331 335 337 340 348 351 344 338 334 329 327 330 331 325 314 296 276 273 279 281 278 272 262 254 248 243 237 229 214 200 189 179 175 174 172 167 162 159 157 153 147 141 139 138 140 145 149 151 149 145 141 140 144 149 152 149 140 136 138 142 22 6
323 319 318 325 331 334 331 329 331 332 326 322 324 326 327 328 330 331 331 332 334 335 335 338 342 339 338 344 350 350 347 347 346 349 354 358 355 345 316 280 276 283 286 287 280 265 252 244 236 229 223 212 196 184 178 174 171 168 165 162 159 154 149 145 144 143 143 144 150 155 153 148 144 142 143 147 148 146 147 148 148 154 182 351 30
322 319 319 324 331 332 330 330 333 334 333 333 334 331 329 331 335 338 341 342 344 344 343 344 346 342 337 338 343 348 352 357 2 1 356 355 359 358 338 305 291 291 293 294 287 267 249 239 231 221 213 202 189 178 173 169 166 164 162 159 153 149 148 148 147 144 144 148 154 155 152 147 143 143 144 143 141 141 147 155 159 164 174 95 64
321 318 320 323 324 326 328 328 329 334 338 340 337 333 334 342 349 353 356 356 352 350 350 351 350 346 341 342 346 349 350 355 0 359 352 348 352 354 342 322 307 300 297 295 285 258 234 223 216 205 194 184 175 167 164 162 160 158 156 154 150 149 149 148 143 141 148 155 157 156 153 148 146 148 146 139 135 141 152 160 162 153 148 109 57
319 318 319 318 313 317 325 325 327 337 341 338 332 331 340 355 6 10 9 6 1 357 358 2 2 357 355 357 358 355 348 346 350 354 354 355 358 356 349 339 328 314 300 293 278 238 213 201 194 187 178 169 162 157 155 155 156 156 156 155 154 152 148 144 143 150 157 160 159 157 154 154 156 153 147 140 141 150 161 165 156 152 151 101 40
317 318 315 305 294 305 316 318 322 333 339 336 333 337 350 6 16 13 7 7 7 2 360 4 9 8 6 7 6 360 352 348 352 358 4 10 14 13 7 2 353 332 293 267 255 225 204 191 184 180 174 167 162 157 154 156 160 161 161 162 159 154 150 152 158 161 162 161 160 157 154 156 157 152 146 145 148 152 159 162 162 167 170 24 29
312 316 312 296 285 292 303 311 318 327 333 334 336 345 6 18 18 10 2 6 12 9 2 5 13 17 17 17 16 15 11 9 10 16 25 38 49 51 50 48 44 48 90 139 172 193 190 180 173 172 169 168 167 164 163 166 167 165 164 165 164 160 161 163 164 164 164 162 159 157 155 154 153 150 147 146 144 151 170 181 189 213 298 14 36
308 317 314 299 288 287 292 305 319 326 327 328 331 350 35 28 20 14 11 15 19 16 12 15 22 24 24 24 27 31 30 27 28 32 42 58 70 72 74 81 91 101 101 97 103 128 145 145 145 146 147 148 151 154 157 162 166 167 168 168 166 164 166 167 167 167 168 166 161 160 158 154 152 153 153 149 152 172 192 205 250 342 39 55 50
303 318 318 305 293 288 290 306 322 325 319 313 311 77 70 44 28 21 22 24 21 16 18 27 31 32 33 35 38 42 42 40 40 44 52 65 75 77 80 91 103 110 109 105 105 109 113 116 121 125 127 133 142 149 153 157 162 165 167 166 166 167 169 170 169 169 169 168 166 164 161 158 156 158 159 159 165 181 194 221 4 41 65 64 48
295 316 317 306 294 290 296 316 330 329 317 287 180 114 85 49 24 20 26 27 21 19 32 44 43 44 49 51 50 47 44 41 44 52 61 73 81 84 87 93 102 109 113 114 115 114 115 119 124 126 128 133 140 145 148 150 152 156 162 168 171 170 167 165 165 164 166 171 171 166 164 162 162 162 164 167 172 178 184 185 112 51 54 55 49
284 312 315 306 294 291 300 321 335 335 324 246 150 116 85 37 15 20 28 28 27 36 53 58 57 59 64 66 62 56 50 48 53 62 69 75 82 87 92 95 99 103 106 109 112 113 115 119 122 122 122 123 123 126 130 134 139 147 157 165 168 167 164 164 166 166 167 171 170 169 169 168 167 166 168 173 178 181 171 150 107 51 44 60 64
270 305 312 303 292 290 300 322 336 335 323 268 125 106 72 25 16 25 34 35 38 51 64 69 71 73 72 72 69 65 63 64 67 72 77 81 85 90 93 96 98 102 103 104 105 105 107 110 112 114 118 120 122 125 128 130 131 136 145 157 168 176 178 175 172 171 172 173 173 174 174 172 169 168 173 177 175 161 143 134 91 44 48 64 64
255 293 308 302 291 289 298 318 334 332 318 351 101 110 80 34 29 39 47 43 39 55 76 84 85 82 78 76 75 76 78 79 79 81 86 89 92 94 96 97 100 102 103 104 104 105 106 109 111 114 119 124 127 130 132 132 133 137 145 160 176 181 175 167 164 165 167 169 170 171 171 169 168 172 176 175 162 144 140 144 97 48 63 68 53
238 271 296 294 287 295 304 307 306 290 250 189 158 151 110 59 51 57 60 48 48 87 100 96 91 88 85 84 84 86 88 89 90 92 94 96 97 98 99 100 102 103 104 105 107 109 110 111 113 115 118 121 124 126 127 127 130 135 144 153 159 159 153 149 148 147 146 150 157 162 164 165 169 176 178 167 150 138 143 160 161 54 71 64 40
227 248 271 268 266 295 312 298 259 241 218 192 183 174 116 79 75 82 81 73 90 110 110 103 97 95 93 91 91 91 91 91 93 95 95 94 96 96 96 97 99 102 103 106 108 109 111 114 115 116 119 122 125 128 129 127 126 130 138 145 147 145 142 139 138 137 139 145 152 157 161 165 171 179 178 165 149 126 109 110 11 57 74 44 19